Regional Weather Roundup
Issued by NWS

Home | Current Version | Previous Version | Graphics & Text | Print | Product List | Glossary On
Versions: 1 2 3 4 5 6 7 8 9 10 11 12 13 14 15 16 17 18 19 20 21 22 23 24 25 26 27 28 29 30 31 32 33 34 35 36 37 38 39 40 41 42 43 44 45 46 47 48 49 50
472
ASUS45 KTFX 192110
RWRMT
MONTANA REGIONAL WEATHER ROUNDUP
NATIONAL WEATHER SERVICE GREAT FALLS MT
300 PM MDT THU OCT 19 2017

NOTE: "FAIR" INDICATES FEW OR NO CLOUDS BELOW 12000 FEET WITH NO
SIGNIFICANT WEATHER AND/OR OBSTRUCTIONS TO VISIBILITY.

MTZ001>007-043-192200-
WEST OF THE DIVIDE

CITY           SKY/WX    TMP DP  RH WIND       PRES   REMARKS
KALISPELL      PTSUNNY   66  30  26 S14       29.55F
MISSOULA       PTSUNNY   60  40  47 S3        29.61F
BUTTE          MOSUNNY   70  12  10 S20G29    29.74F
MULLAN PASS    CLOUDY    49  24  37 VRB7      29.68S
ANACONDA         N/A     70  10  10 SW15G26   29.69F
DEER LODGE       N/A     73  16  11 S14G22    29.67F
EUREKA           N/A     61  30  31 MISG        N/A
HAMILTON         N/A     72  16  12 S10G17    29.61F
LIBBY            N/A     64  27  24 S6        29.55F
PLAINS           N/A     72  31  22 S8        29.60F
$$

MTZ008-052>055-192200-
SOUTHWEST MONTANA

CITY           SKY/WX    TMP DP  RH WIND       PRES   REMARKS
BOZEMAN        SUNNY     77   9   7 SW14G20   29.70F
DILLON         SUNNY     71  16  12 S18G30    29.74F
W YELLOWSTONE  SUNNY     61  10  13 SW18G29   29.94F
ENNIS          SUNNY     68  10  10 S30G40    29.83F
THREE FORKS      N/A     77  16  10 S24       29.72F
TWIN BRIDGES     N/A     73  17  12 SE6       29.76F
$$

MTZ009-010-012-014-046-048-049-054-192200-
EAST SLOPES AND CENTRAL MONTANA

CITY           SKY/WX    TMP DP  RH WIND       PRES   REMARKS
CUT BANK       CLOUDY    69  18  14 SW25G31   29.55F
GREAT FALLS    CLOUDY    73  18  12 SW16      29.59F
MALMSTROM AFB  CLOUDY    75  19  12 SW13      29.59F
HELENA         PTSUNNY   78  14   9 SW20G26   29.61F
BOWMANS CRNR     N/A     70  15  12 SW23G33   29.59F
CHOTEAU          N/A     70  12  11 SW17G26   29.60F
FAIRFIELD        N/A     70  16  12 SW17      29.59F
POWER            N/A     72  19  13 SW18G24   29.58F
RAYNESFORD       N/A     74  18  12 SW10      29.62F
ULM              N/A     74  19  12 SW15      29.58F
$$

MTZ011-013-016-021-045-047-050-051-192200-
NORTH CENTRAL MONTANA

CITY           SKY/WX    TMP DP  RH WIND       PRES   REMARKS
HAVRE          CLOUDY    76  20  12 SW23G36   29.54F
LEWISTOWN      SUNNY     75  17  11 SW21G26   29.67F
N BAR RANCH      N/A     73  18  12 S12G20    29.73F
CHINOOK          N/A     79  21  11 SW20G30   29.54F
DENTON           N/A     76  17  10 NW7       29.59F
GEYSER           N/A     73  17  12 MISG      29.63F
GRASS RANGE      N/A     76  21  13 S15       29.63F
JUDITH GAP       N/A     73  17  12 SW20G28   29.70F
WINIFRED         N/A     77  20  12 S10G20    29.63F
$$

MTZ017>020-022>027-061-062-192200-
NORTHEAST MONTANA

CITY           SKY/WX    TMP DP  RH WIND       PRES   REMARKS
GLASGOW        MOSUNNY   81  21  11 SW17      29.59F
JORDAN           N/A     81  22  11 SW16      29.63F
SIDNEY         MOSUNNY   77  36  22 S15       29.65F
WOLF POINT     MOSUNNY   84  21  10 W14       29.60F
MALTA          SUNNY     81  19  10 SW21G28   29.57F
PLENTYWOOD       N/A     79  27  14 W10G17    29.62F
POPLAR           N/A     82  25  12 W9G16     29.61F
SCOBEY           N/A     79  29  16 SW18      29.62F
$$

MTZ028>42-056>058-192200-
SOUTHCENTRAL AND SOUTHEAST MONTANA

CITY           SKY/WX    TMP DP  RH WIND       PRES   REMARKS
BAKER          SUNNY     81  28  14 SW8       29.73F
BILLINGS       MOSUNNY   79  21  11 SW14G23   29.69F
LIVINGSTON     SUNNY     75  11   8 SW28G36   29.71F
MILES CITY     SUNNY     81  30  15 S7        29.67F
BIG TIMBER     SUNNY     73  19  13 E8        29.74F
EKALAKA          N/A     77  26  15 SE8       29.77F
FORSYTH          N/A     82  25  12 S5        29.66F
HARLOWTON        N/A     76  15  10 MISG      29.68F
LAUREL           N/A     79  21  11 S21G28    29.69F
$$

REGIONAL REPORTS...DAKOTAS

CITY           SKY/WX    TMP DP  RH WIND       PRES   REMARKS
WILLISTON      SUNNY     78  34  20 SW7       29.65F
MINOT          SUNNY     80  32  17 SW12      29.66F
DICKINSON      SUNNY     80  27  14 SW7       29.71F
BEACH            N/A     79  21  11 SW9       29.74F
CROSBY           N/A     77  36  22 S15       29.62S
TIOGA            N/A     75  32  20 S12       29.68S
WATFORD CITY     N/A     79  30  17 SW8G15    29.66F
BISMARCK       SUNNY     78  39  24 SE13      29.71F
GRAND FORKS    MOSUNNY   73  39  29 S15       29.73F
FARGO          SUNNY     74  40  29 S17       29.77F
BUFFALO SD       N/A     82  24  12 S6        29.69F
RAPID CITY     SUNNY     85  16   7 S18       29.75F
$$

REGIONAL REPORTS...WYOMING/IDAHO/WASHINGTON

CITY           SKY/WX    TMP DP  RH WIND       PRES   REMARKS
GILLETTE       SUNNY     76  17  11 S20       29.78F
SHERIDAN       SUNNY     81  26  13 E5        29.73F
BUFFALO WY     SUNNY     80  18  10 NE6       29.77F
CODY           SUNNY     76  16  10 VRB6      29.82F
YELLOWSTONE LA   N/A     57  15  19 VRB3      30.01F
IDAHO FALLS    SUNNY     70  23  17 SW9G17    29.87F
SALMON         SUNNY     76  20  12 S18G25    29.66F
BOISE          SUNNY     76  15  10 MISG      29.72F
SPOKANE        CLOUDY    57  43  59 S8        29.59F
$$

REGIONAL REPORTS...ALBERTA

CITY           SKY/WX    TMP DP  RH WIND       PRES   REMARKS
EDMONTON       SUNNY     57  34  41 S7        29.36F
CALGARY        PTSUNNY   61  34  36 S12G20    29.41S
LETHBRIDGE     PTSUNNY   66  34  30 VRB7      29.49F
MEDICINE HAT   PTSUNNY   70  28  21 SW16G30   29.46F
$$

REGIONAL REPORTS...SASKATCHEWAN

CITY           SKY/WX    TMP DP  RH WIND       PRES   REMARKS
SWIFT CURRENT  SUNNY     72  25  17 SW23G31   29.51S
REGINA         PTSUNNY   75  27  16 W21       29.53S
SASKATOON      PTSUNNY   63  39  42 SW12      29.45S
$$




USA.gov is the U.S. government's official web portal to all federal, state and local government web resources and services.